[[{"header":{"parameterUnit":"m.s-1","parameterCategory":1,"la1":30.2991,"la2":30.254,"lo1":-89.0895,"lo2":-89.0444,"dy":0.0017,"dx":0.0017,"nx":28,"ny":28,"refTime":"2025-11-19T03:00:00:Z","depth":0,"parameterNumber":2,"parameterNumberName":"U-component_of_WINDS"},"data":[0,0,0,0,0,0,0,0,0,0,0,0,0,0,0,0,0,0,0,0,0,0,0,0,0,0,0,0,0,0,0,0,0,0,0,0,0,0,0,0,0,0,0,0,0,0,0,0,0,0,0,0,0,0,0,0,0,0,-3.0706,-3.0706,0,-3.0717,-3.0717,-3.0717,-3.063,-3.0628,-3.0625,-3.0623,-3.0633,-3.0635,-3.0638,0,0,0,0,0,0,0,0,0,0,0,0,0,-3.0612,-3.0614,-3.0706,-3.0706,-3.0707,-3.0717,-3.0717,-3.0717,-3.063,-3.0627,-3.0624,-3.0622,-3.0632,-3.0635,-3.0638,0,0,0,0,0,0,0,0,0,0,0,0,0,-3.0641,-3.0615,-3.0706,-3.0665,-3.0661,-3.0717,-3.0717,-3.0717,-3.0631,-3.0627,-3.0624,-3.062,-3.0631,-3.0635,-3.0638,-3.0734,0,0,-3.065,-3.0652,0,0,0,0,0,0,0,0,-3.0639,-3.0644,-3.0671,-3.0668,-3.0664,-3.0668,-3.0687,-3.0723,-3.0632,-3.0642,-3.0623,-3.0619,-3.0648,-3.065,-3.066,-3.0735,-3.0735,-3.065,-3.0653,-3.0654,-3.0655,0,0,0,0,0,0,0,-3.0637,-3.0643,-3.071,-3.0671,-3.0667,-3.0646,-3.0646,-3.0693,-3.0665,-3.0641,-3.0635,-3.0637,-3.0645,-3.0656,-3.0659,-3.0735,-3.065,-3.0654,-3.0656,-3.0657,-3.0891,-3.0895,0,0,0,0,0,0,-3.0641,-3.0642,-3.071,-3.0711,-3.0642,-3.065,-3.065,-3.067,-3.0664,-3.066,-3.064,-3.0633,-3.0651,-3.0655,-3.0659,-3.0771,-3.0654,-3.0658,-3.066,-3.0887,-3.0892,-3.0896,0,0,0,0,0,0,-3.0639,-3.0648,-3.071,-3.0675,-3.0681,-3.0656,-3.0679,-3.0673,-3.0684,-3.0664,-3.0658,-3.0657,-3.0649,-3.0654,-3.0717,-3.077,-3.0659,-3.0663,-3.0882,-3.0888,-3.0894,-3.0996,0,0,0,0,0,0,-3.0637,-3.0648,-3.0684,-3.0676,-3.0683,-3.0767,-3.0682,-3.0675,-3.0691,-3.0681,-3.0678,-3.0674,-3.0646,-3.0711,-3.072,-3.0774,-3.0666,-3.0877,-3.0885,-3.0892,-3.0988,-3.1005,-3.102,0,0,0,0,0,-3.0634,-3.0712,-3.0686,-3.0695,-3.0728,-3.077,-3.0774,-3.0741,-3.0695,-3.0731,-3.0719,-3.0674,-3.0764,-3.0719,-3.0728,-3.0783,-3.0874,-3.0883,-3.0892,-3.0981,-3.1002,-3.1019,0,0,0,0,0,0,-3.0725,-3.071,-3.0681,-3.0759,-3.0767,-3.0755,-3.0799,-3.0764,-3.0784,-3.0775,-3.0732,-3.0733,-3.0802,-3.0799,-3.0749,-3.0876,-3.0811,-3.0822,-3.0876,-3.0895,-3.0911,-3.0909,-3.0669,0,0,0,0,0,-3.0755,-3.079,-3.0775,-3.0845,-3.0851,-3.0825,-3.0842,-3.0816,-3.0822,-3.0825,-3.0817,-3.0825,-3.0854,-3.0875,-3.0901,-3.0988,-3.0986,-3.1031,-3.1047,-3.106,-3.1069,-3.1116,-3.1135,-3.0925,-3.0925,-3.0925,0,0,-3.0815,-3.0811,-3.0836,-3.0863,-3.0866,-3.0905,-3.0828,-3.0871,-3.0899,-3.0831,-3.089,-3.0885,-3.0891,-3.0966,-3.0999,-3.0966,-3.1127,-3.1071,-3.1081,-3.1084,-3.1127,-3.1147,-3.1165,-3.0931,-3.093,-3.0929,0,0,-3.0945,-3.0946,-3.1004,-3.1009,-3.1015,-3.0998,-3.1012,-3.1007,-3.1001,-3.106,-3.101,-3.1043,-3.1095,-3.1101,-3.1112,-3.1247,-3.1207,-3.1257,-3.1339,-3.1384,-3.1401,-3.1415,-3.1464,-3.1481,-3.1267,-3.1267,-3.1267,0,-3.1019,-3.1074,-3.1039,-3.1086,-3.11,-3.1041,-3.1101,-3.1107,-3.1122,-3.1132,-3.1095,-3.116,-3.116,-3.1237,-3.127,-3.128,-3.1295,-3.1256,-3.1402,-3.1416,-3.1429,-3.1474,-3.1492,-3.1273,-3.1272,-3.1272,-3.1271,0,-3.1165,-3.1205,-3.1252,-3.1268,-3.1287,-3.134,-3.1313,-3.1337,-3.131,-3.1297,-3.1359,-3.1357,-3.1382,-3.1399,-3.1372,-3.1472,-3.1451,-3.1409,-3.1342,-3.1455,-3.1497,-3.1514,-3.1282,-3.128,-3.1278,-3.1276,0,0,-3.135,-3.1348,-3.1365,-3.1373,-3.1376,-3.1406,-3.1457,-3.1483,-3.1504,-3.1517,-3.1558,-3.1605,-3.1566,-3.1578,-3.1553,-3.1593,-3.1701,-3.1545,-3.1545,-3.1574,-3.1811,-3.1842,-3.1863,-3.1675,-3.1678,-3.168,-3.181,0,-3.1476,-3.1563,-3.1534,-3.1623,-3.1659,-3.1605,-3.165,-3.1657,-3.1647,-3.1677,-3.1666,-3.17,-3.1646,-3.1653,-3.169,-3.168,-3.1747,-3.167,-3.1713,-3.1715,-3.1712,-3.1885,-3.1917,-3.204,-3.1826,-3.1829,-3.1831,0,-3.1634,-3.1654,-3.1747,-3.1745,-3.1759,-3.18,-3.1822,-3.1851,-3.1859,-3.1849,-3.1863,-3.183,-3.188,-3.1815,-3.1884,-3.1832,-3.1849,-3.1847,-3.185,-3.1852,-3.1779,-3.189,-3.2078,-3.2096,-3.1857,-3.1854,-3.1853,0,-3.1759,-3.181,-3.1871,-3.1879,-3.1879,-3.1909,-3.1911,-3.1915,-3.1933,-3.1952,-3.1963,-3.1988,-3.2002,-3.2022,-3.1997,-3.1951,-3.207,-3.2002,-3.2063,-3.2064,-3.2089,-3.2088,-3.2281,-3.2102,-3.2102,-3.2101,-3.2101,0,-3.1902,-3.1961,-3.1928,-3.1966,-3.203,-3.1997,-3.2062,-3.2057,-3.2062,-3.2098,-3.2054,-3.2089,-3.2054,-3.2086,-3.2067,-3.2127,-3.2134,-3.2127,-3.2121,-3.2131,-3.2131,-3.214,-3.213,-3.2106,-3.2105,-3.2104,-3.2103,0,-3.2052,-3.2032,-3.2096,-3.2092,-3.2092,-3.214,-3.2136,-3.2172,-3.2159,-3.2206,-3.2215,-3.2196,-3.2232,-3.2209,-3.2245,-3.2232,-3.2312,-3.2294,-3.2309,-3.2304,-3.2366,-3.236,-3.257,-3.2596,-3.2401,-3.2403,-3.2405,0,-3.2144,-3.2188,-3.2189,-3.2211,-3.2215,-3.225,-3.2269,-3.2238,-3.2259,-3.2273,-3.2307,-3.2339,-3.2363,-3.2423,-3.2412,-3.244,-3.2423,-3.2495,-3.2426,-3.2435,-3.2423,-3.242,-3.2425,-3.2508,-3.251,-3.2512,-3.2513,0,-3.2309,-3.2298,-3.2326,-3.2352,-3.2375,-3.2394,-3.2409,-3.2429,-3.2399,-3.2425,-3.2461,-3.248,-3.2518,-3.2551,-3.2575,-3.2576,-3.254,-3.2535,-3.2551,-3.256,-3.2567,-3.2564,-3.2346,-3.253,-3.2528,-3.2527,-3.2526,-3.2526,-3.2432,-3.2469,-3.2476,-3.251,-3.2518,-3.2534,-3.2567,-3.256,-3.259,-3.2618,-3.2599,-3.2642,-3.2651,-3.2679,-3.2686,-3.2719,-3.269,-3.2712,-3.2718,-3.2724,-3.2732,-3.2563,-3.2724,-3.2723,-3.2723,-3.2722,-3.2722,0,-3.2594,-3.2597,-3.2628,-3.2651,-3.2678,-3.2643,-3.2659,-3.2683,-3.2722,-3.2733,-3.2758,-3.2801,-3.2833,-3.2826,-3.2855,-3.2884,-3.2868,-3.2893,-3.2889,-3.2891,-3.2757,-3.274,-3.2905,-3.2905,-3.2905,-3.2905,-3.2905,-3.2905,-3.2682,-3.2743,-3.2733,-3.2798,-3.28,-3.2843,-3.2855,-3.2869,-3.2878,-3.2928,-3.2955,-3.295,-3.2954,-3.2984,-3.3012,-3.3009,-3.3022,-3.3052,-3.3043,-3.2918,-3.29,-3.2882,-3.2867,-3.3055,-3.3055,-3.3174,-3.3175,-3.3176]},{"header":{"parameterUnit":"m.s-1","parameterCategory":1,"la1":30.2991,"la2":30.254,"lo1":-89.0895,"lo2":-89.0444,"dy":0.0017,"dx":0.0017,"nx":28,"ny":28,"refTime":"2025-11-19T03:00:00:Z","depth":0,"parameterNumber":3,"parameterNumberName":"V-component_of_WINDS"},"data":[0,0,0,0,0,0,0,0,0,0,0,0,0,0,0,0,0,0,0,0,0,0,0,0,0,0,0,0,0,0,0,0,0,0,0,0,0,0,0,0,0,0,0,0,0,0,0,0,0,0,0,0,0,0,0,0,0,0,-0.1025,-0.1024,0,-0.0989,-0.0989,-0.0989,-0.0951,-0.0951,-0.095,-0.095,-0.0915,-0.0914,-0.0914,0,0,0,0,0,0,0,0,0,0,0,0,0,-0.106,-0.1059,-0.1025,-0.1024,-0.1024,-0.099,-0.0989,-0.0989,-0.0951,-0.0951,-0.095,-0.095,-0.0915,-0.0914,-0.0914,0,0,0,0,0,0,0,0,0,0,0,0,0,-0.1036,-0.1059,-0.1025,-0.1001,-0.0999,-0.099,-0.0989,-0.0988,-0.0952,-0.0951,-0.095,-0.0949,-0.0915,-0.0914,-0.0914,-0.0925,0,0,-0.0912,-0.0911,0,0,0,0,0,0,0,0,-0.1038,-0.1035,-0.1005,-0.1003,-0.1,-0.0974,-0.0988,-0.0967,-0.0952,-0.097,-0.095,-0.0949,-0.0935,-0.0933,-0.0928,-0.0924,-0.0922,-0.0912,-0.0911,-0.0911,-0.0911,0,0,0,0,0,0,0,-0.1039,-0.1037,-0.1011,-0.1005,-0.1002,-0.0992,-0.0988,-0.0984,-0.0957,-0.0968,-0.0965,-0.0961,-0.0934,-0.0929,-0.0927,-0.0922,-0.0912,-0.0911,-0.0911,-0.091,-0.0923,-0.0923,0,0,0,0,0,0,-0.1045,-0.1038,-0.1012,-0.101,-0.1017,-0.0992,-0.0988,-0.0983,-0.0957,-0.0952,-0.0962,-0.096,-0.093,-0.0928,-0.0925,-0.0935,-0.0911,-0.091,-0.091,-0.0922,-0.0923,-0.0924,0,0,0,0,0,0,-0.1046,-0.1043,-0.1013,-0.1023,-0.1019,-0.0992,-0.0988,-0.0983,-0.0978,-0.0953,-0.0948,-0.0962,-0.0929,-0.0926,-0.0925,-0.0934,-0.091,-0.0909,-0.0921,-0.0922,-0.0923,-0.0957,0,0,0,0,0,0,-0.1047,-0.1043,-0.1048,-0.1024,-0.1018,-0.1014,-0.0988,-0.0983,-0.0977,-0.0973,-0.0951,-0.0947,-0.0929,-0.0926,-0.0924,-0.0932,-0.0909,-0.092,-0.0921,-0.0923,-0.0955,-0.0959,-0.0963,0,0,0,0,0,-0.1048,-0.1059,-0.1048,-0.1045,-0.1023,-0.1014,-0.1011,-0.099,-0.0978,-0.0981,-0.0965,-0.0948,-0.0933,-0.0926,-0.0924,-0.0932,-0.0919,-0.0921,-0.0923,-0.0953,-0.0958,-0.0962,0,0,0,0,0,0,-0.1086,-0.1056,-0.1043,-0.1047,-0.1033,-0.1008,-0.1013,-0.0996,-0.0986,-0.0984,-0.0957,-0.0953,-0.0954,-0.0943,-0.0936,-0.0941,-0.0924,-0.0925,-0.0948,-0.0952,-0.0956,-0.0958,-0.0908,0,0,0,0,0,-0.1095,-0.109,-0.1064,-0.107,-0.1064,-0.1039,-0.1035,-0.1019,-0.1004,-0.0998,-0.0982,-0.0968,-0.096,-0.0956,-0.0948,-0.0953,-0.0947,-0.0957,-0.0961,-0.0965,-0.0966,-0.0966,-0.0969,-0.0929,-0.0929,-0.0929,0,0,-0.1113,-0.1096,-0.1095,-0.1077,-0.1065,-0.106,-0.1035,-0.1031,-0.1027,-0.0998,-0.0995,-0.0982,-0.0965,-0.0967,-0.0967,-0.0958,-0.0975,-0.0967,-0.0969,-0.0969,-0.0968,-0.0972,-0.0975,-0.093,-0.093,-0.093,0,0,-0.1143,-0.113,-0.1133,-0.112,-0.1102,-0.1085,-0.1086,-0.1063,-0.1053,-0.1049,-0.1026,-0.1021,-0.1009,-0.0997,-0.0989,-0.1013,-0.0996,-0.1011,-0.1031,-0.1031,-0.1034,-0.1037,-0.1044,-0.1047,-0.1012,-0.1013,-0.1013,0,-0.1168,-0.116,-0.1136,-0.1133,-0.1125,-0.1098,-0.1099,-0.1089,-0.1069,-0.1064,-0.1054,-0.1036,-0.1023,-0.102,-0.1026,-0.1021,-0.102,-0.1013,-0.1036,-0.1038,-0.104,-0.1047,-0.1049,-0.1014,-0.1014,-0.1014,-0.1014,0,-0.119,-0.1185,-0.1189,-0.1169,-0.1162,-0.1161,-0.1137,-0.1133,-0.1117,-0.1101,-0.1097,-0.108,-0.1067,-0.1065,-0.1051,-0.106,-0.1055,-0.1041,-0.1023,-0.1047,-0.1052,-0.1054,-0.1017,-0.1016,-0.1016,-0.1015,0,0,-0.1244,-0.1209,-0.1211,-0.1201,-0.1177,-0.1173,-0.1171,-0.1157,-0.1152,-0.1139,-0.1136,-0.1125,-0.1111,-0.1103,-0.1086,-0.1087,-0.1104,-0.1073,-0.1072,-0.1078,-0.1111,-0.1121,-0.1124,-0.1093,-0.1094,-0.1094,-0.1112,0,-0.1269,-0.1263,-0.124,-0.1241,-0.1234,-0.1207,-0.1205,-0.119,-0.1175,-0.1167,-0.1151,-0.1143,-0.1126,-0.1121,-0.112,-0.1102,-0.111,-0.1101,-0.1089,-0.1089,-0.1093,-0.1127,-0.1138,-0.1156,-0.1114,-0.1115,-0.1115,0,-0.1297,-0.1285,-0.1284,-0.1259,-0.1255,-0.1254,-0.1238,-0.1232,-0.1214,-0.1202,-0.1192,-0.1173,-0.1168,-0.1152,-0.1144,-0.1138,-0.1132,-0.1123,-0.1123,-0.112,-0.1103,-0.1124,-0.1162,-0.1164,-0.1118,-0.1118,-0.1118,0,-0.1334,-0.1317,-0.1314,-0.1306,-0.1277,-0.1276,-0.1264,-0.1246,-0.1238,-0.1225,-0.1219,-0.1206,-0.1198,-0.1188,-0.1165,-0.1156,-0.1159,-0.1142,-0.1149,-0.115,-0.1151,-0.1151,-0.1186,-0.1149,-0.1149,-0.1149,-0.1149,0,-0.1364,-0.1364,-0.133,-0.1328,-0.1327,-0.1301,-0.1301,-0.1286,-0.1269,-0.1263,-0.124,-0.1235,-0.1206,-0.1198,-0.118,-0.1175,-0.1173,-0.1163,-0.1158,-0.1164,-0.1165,-0.1159,-0.1157,-0.1149,-0.1149,-0.1149,-0.1149,0,-0.1405,-0.1382,-0.1377,-0.1349,-0.1342,-0.1343,-0.1319,-0.1315,-0.1298,-0.1291,-0.1288,-0.1261,-0.125,-0.1227,-0.1209,-0.1197,-0.1196,-0.1188,-0.1202,-0.1199,-0.1206,-0.1205,-0.1238,-0.1241,-0.1203,-0.1204,-0.1204,0,-0.1425,-0.1424,-0.1396,-0.139,-0.1379,-0.137,-0.1361,-0.1336,-0.1328,-0.1306,-0.1305,-0.1292,-0.1279,-0.1262,-0.1241,-0.1227,-0.1218,-0.123,-0.1216,-0.1221,-0.1216,-0.1216,-0.1215,-0.1233,-0.1234,-0.1234,-0.1235,0,-0.1462,-0.145,-0.1439,-0.1423,-0.1414,-0.14,-0.1386,-0.1382,-0.1353,-0.1345,-0.1333,-0.1323,-0.1304,-0.1291,-0.1273,-0.126,-0.1242,-0.124,-0.124,-0.1246,-0.1253,-0.1248,-0.1209,-0.1239,-0.1238,-0.1238,-0.1238,-0.1238,-0.1492,-0.1489,-0.1468,-0.1456,-0.1442,-0.1429,-0.1423,-0.1405,-0.1394,-0.1376,-0.1362,-0.135,-0.133,-0.1305,-0.1293,-0.1283,-0.1274,-0.1276,-0.1276,-0.1276,-0.1278,-0.1256,-0.128,-0.128,-0.128,-0.1279,-0.1279,0,-0.1526,-0.1511,-0.15,-0.148,-0.147,-0.1453,-0.1436,-0.1428,-0.1418,-0.1401,-0.1389,-0.1374,-0.136,-0.1337,-0.1321,-0.1317,-0.1309,-0.1314,-0.1314,-0.131,-0.1287,-0.1288,-0.1321,-0.1321,-0.1321,-0.1321,-0.1321,-0.1321,-0.1543,-0.1537,-0.1522,-0.1509,-0.1493,-0.1481,-0.1472,-0.1459,-0.1445,-0.1429,-0.1417,-0.1402,-0.1382,-0.1364,-0.1351,-0.1344,-0.1339,-0.1347,-0.1338,-0.1316,-0.1312,-0.1309,-0.1309,-0.1346,-0.1346,-0.1361,-0.1361,-0.1361]}]]